Flight Information

DEPARTURE
EAGLE, CO
Elevation:
6547
Runways:
7/25 - 9000x150 - ASPH-E
ATIS:
135.575
Clearance Delivery:
124.75
Ground:
121.8
Tower:
EAGLE TOWER 119.8
DESTINATION
,
Elevation:
TPA:
1000 (est.)


6176.6 NM79° True-12° Var66° HDG

Flight Plan:
(click to file on line)

1. Type
2. Aircraft Identification
3. Aircraft Type / Special Equipment
4. True Airspeed
kts
5. Departure Airport
(ICAO code)
6. Arriving Airport
(ICAO code)
7. Cruising Altitude
ft
8. Alternate Airport
(ICAO code)
9. Route of Flight
10. Remarks


00:00:00 Departure ATIS: Destination ATIS:

Clearance Limit:
Route:
Altitude: Expect in minutes
Frequency:
Transponder: (7500 Hijack / 7600 Lost Comms / 7700 Emergency)


KEGE 021256Z AUTO 25012G26KT 10SM -RA OVC038 03/M02 A2977 RMK AO2 PK WND 25029/1241 RAB35 SLP009 P0000 T00281022
Time: 2022-12-02T12:56:00Z
1670648515
Winds: 250 @ 12 kts
Gusting:26 kts
Visibility: 10.0 sm
Clouds (AGL): OVC 3800
Temperature: 2.8 C
Dew Point: -2.2 C
Pressure: 29.769686 in Hgbr


Notes:

Data extracted from FAA Digital Chart Supplement. Effective: 0901Z Thursday, 27 JAN 2022 to 0900z Thursday, 24 MAR 2022
Current ATIS data is provided courtisy of PilotEdge.